Lid_Strength_Index
5 5 4 4 3 3 3 3 3 2 2 2 1 1 1 1 1 1 1 2 2 2
5 5 4 3 3 3 3 2 2 2 2 2 1 1 1 2 1 1 1 1 1 2
4 3 3 3 3 3 2 2 2 2 1 1 1 1 1 1 1 1 1 1 1 1
3 3 3 3 3 3 2 2 1 1 1 1 1 1 1 1 1 1 1 1 1 1
3 3 3 3 2 2 2 1 1 1 1 1 1 1 1 2 1 2 2 2 2 2
3 3 3 2 2 2 2 1 1 1 1 1 1 1 1 2 1 2 2 2 2 2
3 3 2 2 2 2 2 2 1 1 1 1 1 1 1 1 1 2 2 1 2 2
3 2 2 2 2 2 1 1 1 1 2 2 2 4 3 1 2 2 2 1 1 1
2 3 2 2 2 2 1 1 1 2 2 2 3 10 7 3 1 2 2 2 1 1
2 2 2 2 2 2 1 1 2 2 3 3 4 11 8 6 2 1 2 2 2 2
2 2 2 2 2 2 1 2 2 3 3 3 5 10 9 7 1 1 2 2 2 3
2 2 2 2 3 2 2 2 3 3 3 2 4 10 9 4 1 2 3 2 2 2
2 2 2 3 3 2 2 2 2 3 3 5 4 10 10 4 1 3 3 3 4 8
2 2 2 2 2 2 2 2 3 4 3 3 4 6 10 7 2 2 3 4 4 6